Waarnemingen

Advertentie
Mijn weer
Charleville, Frankrijk (7075): temperatuur & dauwpunt: 18.11.2017 17:00:00 - 24.11.2017 17:00:00 (CET)Charleville, Frankrijk (7075): temperatuur 5cm: 18.11.2017 17:00:00 - 24.11.2017 17:00:00 (CET)Charleville, Frankrijk (7075): temperatuur -20cm & temperatuur -100cm: 18.11.2017 17:00:00 - 24.11.2017 17:00:00 (CET)Charleville, Frankrijk (7075): windsnelheid & windstoten: 18.11.2017 17:00:00 - 24.11.2017 17:00:00 (CET)Charleville, Frankrijk (7075): windrichting: 18.11.2017 17:00:00 - 24.11.2017 17:00:00 (CET)Charleville, Frankrijk (7075): luchtdruk: 18.11.2017 17:00:00 - 24.11.2017 17:00:00 (CET)Charleville, Frankrijk (7075): zicht: 18.11.2017 17:00:00 - 24.11.2017 17:00:00 (CET)Charleville, Frankrijk (7075): Zonneschijnduur: 18.11.2017 17:00:00 - 24.11.2017 17:00:00 (CET)Charleville, Frankrijk (7075): neerslag: 18.11.2017 17:00:00 - 24.11.2017 17:00:00 (CET)
Datum & Tijd tt [°C] td [°C] tt 5cm [°C] tt -20cm [°C] tt -100cm [°C] ff [km/u] ff [kn] fx [km/u] fx [kn] dd ppp [hPa] vv [km] sd [min] rr [mm]
24.11.2017 17:00:00 6,3 5,6 3,7 9,4 11,1 3 1 4 2 ZZW 1012,7 1,8 0 0,0
24.11.2017 16:00:00 8,6 6,7 7,6 9,4 11,1 1 0 10 5 NO 1012,3 15 10 0,0
24.11.2017 15:00:00 9,5 7,1 9,8 9,3 11,1 5 3 9 5 ZZO 1012,1 19 5 0,0
24.11.2017 14:00:00 9,4 6,8 10,5 9,3 11,1 3 2 9 5 WZW 1012,0 20 0 0,0
24.11.2017 13:00:00 9,5 6,8 - 9,2 11,1 5 3 - - WNW 1012,0 20 - -
24.11.2017 12:00:00 9,0 6,8 8,9 9,2 11,1 17 9 26 14 NW 1011,8 20 - 0,0
24.11.2017 11:00:00 10,4 8,3 9,8 9,2 11,1 12 7 29 16 W 1010,8 20 0 0,4
24.11.2017 10:00:00 11,4 9,8 10,6 9,2 11,1 14 7 33 18 W 1009,7 12 0 0,4
24.11.2017 09:00:00 11,9 9,8 10,4 9,2 11,1 14 7 34 19 ZW 1008,7 20 0 0,0
24.11.2017 08:00:00 11,4 9,5 10,2 9,1 11,1 10 6 34 19 WZW 1008,2 20 0 0,2
24.11.2017 07:00:00 11,2 9,3 10,0 9,1 11,1 16 9 36 20 ZZW 1007,4 20 0 0,6
24.11.2017 06:00:00 11,2 8,8 10,0 9,1 11,1 19 10 39 21 Z 1007,2 20 0 2,0
24.11.2017 05:00:00 11,5 9,2 10,3 9,1 11,1 17 9 37 20 ZZW 1007,2 20 0 0,0
24.11.2017 04:00:00 11,6 9,3 10,5 9,1 11,1 18 10 37 20 ZZW 1007,6 17 0 0,0
24.11.2017 03:00:00 11,8 10,4 9,9 9,0 11,1 21 11 37 20 Z 1007,9 6 0 0,6
24.11.2017 02:00:00 10,1 9,6 9,7 9,0 11,1 6 3 14 8 OZO 1008,6 6 0 0,4
24.11.2017 01:00:00 9,8 9,3 9,1 9,0 11,1 6 4 10 5 ZZO 1009,8 3,4 0 0,0
24.11.2017 00:00:00 9,5 9,0 8,9 9,0 11,1 2 1 6 3 ZZO 1010,7 0,7 0 0,0
23.11.2017 23:00:00 9,7 9,2 9,2 9,0 11,1 2 1 6 4 O 1010,8 2,5 0 0,0
23.11.2017 22:00:00 10,1 9,6 8,9 8,9 11,1 2 1 8 5 NO 1011,0 10 0 0,0
23.11.2017 21:00:00 9,5 9,0 8,7 8,9 11,1 2 1 6 3 O 1010,9 4,7 0 0,0
23.11.2017 20:00:00 9,6 9,1 7,8 8,8 11,1 3 2 8 4 O 1010,3 10 0 0,0
23.11.2017 19:00:00 9,3 8,2 7,8 8,7 11,1 4 2 19 10 OZO 1010,0 0,6 0 0,0
23.11.2017 18:00:00 11,3 9,4 10,6 8,6 11,1 18 10 36 19 W 1009,6 6 0 2,1
23.11.2017 17:00:00 12,4 11,1 11,6 8,5 11,1 14 8 44 24 WZW 1008,2 4,4 0 8,5
23.11.2017 16:00:00 12,7 10,8 11,8 8,4 11,1 12 6 40 22 W 1007,6 5 0 2,4
23.11.2017 15:00:00 14,9 9,3 14,7 8,3 11,1 18 10 43 23 ZZW 1006,6 20 0 0,0
23.11.2017 14:00:00 15,5 9,4 14,6 8,2 11,1 19 10 41 22 ZZW 1006,4 20 20 0,0
23.11.2017 13:00:00 14,7 9,1 14,4 8,2 11,1 17 9 48 26 ZZW 1006,2 20 6 0,0
23.11.2017 12:00:00 14,1 8,7 12,6 8,1 11,1 19 11 37 20 ZZW 1005,8 20 11 0,0
23.11.2017 11:00:00 12,6 7,3 11,1 8,1 11,2 15 8 37 20 ZZW 1005,5 20 0 0,0
23.11.2017 10:00:00 12,8 6,6 11,7 8,1 11,2 20 11 48 26 ZZW 1004,5 20 18 0,0
23.11.2017 09:00:00 12,4 5,8 11,5 8,1 11,2 23 12 53 28 ZZW 1003,7 20 14 0,0
23.11.2017 08:00:00 12,3 5,5 10,6 8,1 11,2 23 13 50 27 Z 1002,8 20 0 0,0
23.11.2017 07:00:00 11,6 5,2 10,6 8,0 11,2 26 14 56 31 Z 1002,2 20 0 0,0
23.11.2017 06:00:00 11,5 5,1 10,3 8,1 11,2 22 12 47 26 Z 1002,3 20 0 0,0
23.11.2017 05:00:00 10,9 5,0 9,4 8,1 11,2 18 10 41 22 Z 1002,5 20 0 0,0
23.11.2017 04:00:00 10,6 4,5 6,9 8,2 11,2 19 10 44 24 Z 1003,4 20 0 0,0
23.11.2017 03:00:00 8,7 4,1 5,3 8,2 11,2 10 5 21 11 OZO 1003,9 20 0 0,0
23.11.2017 02:00:00 7,2 3,2 4,4 8,3 11,2 14 8 22 12 OZO 1004,3 20 0 0,0
23.11.2017 01:00:00 6,4 3,2 2,8 8,4 11,2 14 8 20 11 OZO 1005,1 20 0 0,0
23.11.2017 00:00:00 7,1 3,3 3,4 8,4 11,2 14 8 23 12 O 1005,5 20 0 0,0
22.11.2017 23:00:00 6,4 3,2 4,0 8,5 11,2 16 9 26 14 O 1005,5 20 0 0,0
22.11.2017 22:00:00 7,0 3,4 3,8 8,5 11,2 14 7 23 12 OZO 1006,1 20 0 0,0
22.11.2017 21:00:00 7,2 3,2 0,2 8,6 11,2 16 8 23 13 O 1006,1 20 0 0,0
22.11.2017 20:00:00 3,5 1,5 0,1 8,6 11,2 2 1 14 8 ZO 1006,7 19 0 0,0
22.11.2017 19:00:00 4,1 3,2 -0,4 8,6 11,3 6 3 9 5 O 1007,1 18 0 0,0
22.11.2017 18:00:00 5,3 3,5 1,6 8,6 11,3 6 4 13 7 ONO 1007,7 20 0 0,0
22.11.2017 17:00:00 7,5 4,3 3,9 8,5 11,2 9 5 15 8 O 1008,1 20 15 0,0
22.11.2017 16:00:00 11,3 6,0 10,9 8,5 11,2 9 5 31 17 ZO 1008,1 20 60 0,0
22.11.2017 15:00:00 11,7 6,4 12,3 8,4 11,3 16 9 28 15 ZZO 1008,8 20 60 0,0
22.11.2017 14:00:00 10,9 7,0 13,2 8,4 11,3 14 7 23 13 OZO 1009,7 19 60 0,0
22.11.2017 13:00:00 9,2 5,7 9,6 8,3 11,2 13 7 26 14 ZZO 1010,6 17 41 0,0
22.11.2017 12:00:00 8,6 5,9 9,6 8,3 11,3 16 9 23 13 ZZO 1011,7 12 27 0,0
22.11.2017 11:00:00 8,2 6,2 8,1 8,3 11,3 10 5 22 12 ZZO 1012,3 11 0 0,0
22.11.2017 10:00:00 7,9 5,7 8,1 8,3 11,3 12 7 22 12 Z 1012,4 11 0 0,0
22.11.2017 09:00:00 8,1 6,2 8,1 8,3 11,3 9 5 19 10 ZZO 1012,1 11 0 0,0
22.11.2017 08:00:00 8,3 6,4 8,1 8,2 11,3 9 5 20 11 Z 1012,1 12 0 0,0
22.11.2017 07:00:00 8,4 6,5 8,1 8,2 11,3 11 6 24 13 Z 1011,6 12 0 0,0
22.11.2017 06:00:00 8,5 6,6 8,2 8,2 11,3 12 7 22 12 Z 1012,0 11 0 0,0
22.11.2017 05:00:00 8,7 6,8 8,4 8,2 11,3 10 6 22 12 Z 1012,2 11 0 0,0
22.11.2017 04:00:00 8,7 6,8 8,4 8,2 11,3 9 5 23 13 Z 1012,8 12 0 0,0
22.11.2017 03:00:00 8,7 6,7 8,4 8,2 11,3 10 5 27 15 Z 1013,2 13 0 0,0
22.11.2017 02:00:00 8,7 6,7 8,4 8,2 11,3 11 6 25 13 Z 1013,5 13 0 0,0
22.11.2017 01:00:00 8,6 6,6 8,3 8,1 11,3 16 9 32 17 ZZW 1013,7 14 0 0,0
22.11.2017 00:00:00 8,5 6,5 8,0 8,1 11,3 17 9 36 19 ZZW 1013,9 16 0 0,0
21.11.2017 23:00:00 8,2 6,0 8,0 8,1 11,3 14 8 26 14 Z 1014,3 16 0 0,0
21.11.2017 22:00:00 8,2 6,0 7,9 8,1 11,3 12 6 25 14 ZZW 1014,6 19 0 0,0
21.11.2017 21:00:00 8,1 5,9 7,8 8,1 11,4 11 6 22 12 Z 1014,8 19 0 0,0
21.11.2017 20:00:00 8,2 6,0 7,7 8,1 11,3 9 5 21 11 ZZW 1015,4 17 0 0,0
21.11.2017 19:00:00 7,9 5,9 7,6 8,1 11,4 8 4 16 9 Z 1015,5 15 0 0,0
21.11.2017 18:00:00 7,8 5,9 7,6 8,0 11,4 6 3 20 11 ZZW 1015,7 14 0 0,0
21.11.2017 17:00:00 7,8 5,9 7,7 8,0 11,4 9 5 22 12 Z 1015,7 11 0 0,0
21.11.2017 16:00:00 8,0 5,8 8,0 7,9 11,4 12 6 26 14 ZZW 1016,0 13 0 0,0
21.11.2017 15:00:00 8,1 5,9 8,3 7,9 11,4 10 5 27 15 ZZW 1016,3 14 0 0,0
21.11.2017 14:00:00 8,0 6,0 8,5 7,9 11,4 14 7 32 17 ZZW 1016,9 11 0 0,0
21.11.2017 13:00:00 8,3 6,1 8,5 7,8 11,4 16 9 39 21 ZZW 1017,3 13 0 0,0
21.11.2017 12:00:00 8,6 6,4 8,2 7,8 11,4 15 8 35 19 ZZW 1017,1 16 0 0,0
21.11.2017 11:00:00 8,7 6,7 8,3 7,7 11,4 19 11 38 21 ZW 1017,6 17 0 0,0
21.11.2017 10:00:00 8,6 7,4 8,3 7,7 11,4 16 9 32 18 ZW 1017,4 8 0 0,0
21.11.2017 09:00:00 8,5 7,6 8,2 7,7 11,4 11 6 25 13 ZW 1017,1 3,6 0 0,0
21.11.2017 08:00:00 8,6 7,7 8,2 7,6 11,4 10 5 23 12 WZW 1016,9 5 0 0,0
21.11.2017 07:00:00 8,8 8,0 8,4 7,6 11,4 10 5 25 14 WZW 1016,6 4,5 0 0,2
21.11.2017 06:00:00 8,8 8,0 8,4 7,5 11,4 8 4 19 10 WZW 1016,3 4,9 0 0,2
21.11.2017 05:00:00 8,7 7,9 8,4 7,5 11,4 5 3 22 12 W 1016,5 4,5 0 0,2
21.11.2017 04:00:00 8,8 8,0 8,4 7,4 11,4 8 5 22 12 WZW 1016,5 3,9 0 0,2
21.11.2017 03:00:00 8,8 8,0 8,4 7,4 11,5 8 4 20 11 WZW 1016,7 2,8 0 0,2
21.11.2017 02:00:00 8,9 8,1 8,5 7,3 11,4 9 5 29 16 WZW 1016,5 3,0 0 0,4
21.11.2017 01:00:00 9,0 8,1 8,3 7,3 11,4 12 6 30 16 WZW 1016,8 6 0 0,0
21.11.2017 00:00:00 8,7 7,9 7,9 7,2 11,5 9 5 23 12 WZW 1016,9 4,1 0 0,2
20.11.2017 23:00:00 8,2 7,4 7,7 7,2 11,5 9 5 22 12 WZW 1016,9 3,6 0 0,2
20.11.2017 22:00:00 8,1 7,2 7,5 7,2 11,5 12 6 23 12 WZW 1017,1 3,0 0 2,8
20.11.2017 21:00:00 8,0 7,1 7,5 7,1 11,5 11 6 29 16 WZW 1017,2 2,7 0 0,8
20.11.2017 20:00:00 8,0 6,8 7,1 7,1 11,5 13 7 25 13 ZW 1017,0 14 0 0,8
20.11.2017 19:00:00 7,5 6,8 6,8 7,1 11,5 11 6 27 15 ZW 1017,5 2,3 0 0,8
20.11.2017 18:00:00 7,1 6,4 6,3 7,1 11,5 9 5 22 12 ZW 1017,6 5 0 0,2
20.11.2017 17:00:00 6,5 5,9 5,6 7,0 11,5 11 6 24 13 ZZW 1018,1 6 0 0,0
20.11.2017 16:00:00 5,5 5,1 5,0 7,0 11,5 4 2 16 9 Z 1018,6 2,6 0 0,4
20.11.2017 15:00:00 4,9 4,3 4,6 7,0 11,5 8 4 18 10 ZZW 1019,3 8 0 0,0
20.11.2017 14:00:00 4,4 3,8 4,1 7,0 11,5 5 3 15 8 Z 1020,0 11 0 0,2
20.11.2017 13:00:00 3,6 3,2 3,5 7,0 11,5 6 3 14 7 OZO 1020,8 3,1 0 0,2
20.11.2017 12:00:00 2,8 2,2 2,8 7,0 11,5 6 3 14 7 OZO 1022,1 6 0 0,0
20.11.2017 11:00:00 1,8 1,4 1,6 7,0 11,5 9 5 18 10 O 1022,7 11 0 0,0
20.11.2017 10:00:00 0,8 0,4 0,2 7,0 11,5 8 5 12 7 ZO 1023,1 5 0 0,0
20.11.2017 09:00:00 0,0 -0,4 -0,1 7,1 11,5 3 1 4 2 ZO 1023,8 4,7 0 0,0
20.11.2017 08:00:00 -0,4 -0,8 -0,4 7,1 11,5 2 1 8 4 ZZO 1023,8 4,6 0 0,0
20.11.2017 07:00:00 -0,7 -1,1 -0,8 7,2 11,6 5 3 8 4 ZO 1023,6 0,9 0 0,0
20.11.2017 06:00:00 -1,1 -1,5 -0,9 7,2 11,5 5 3 9 5 ZZO 1024,1 0,3 0 0,0
20.11.2017 05:00:00 -1,2 -1,6 -0,9 7,3 11,6 4 2 7 4 Z 1024,6 0,2 0 0,0
20.11.2017 04:00:00 -0,9 -1,3 -0,8 7,4 11,6 4 2 9 5 ZZO 1024,8 0,2 0 0,0
20.11.2017 03:00:00 -1,1 -1,5 -1,9 7,5 11,5 2 1 4 2 Z 1025,1 0,2 0 0,0
20.11.2017 02:00:00 -2,1 -2,5 -2,9 7,5 11,5 1 0 4 2 ONO 1025,4 0,3 0 0,0
20.11.2017 01:00:00 -2,5 -2,9 -5,8 7,6 11,6 3 2 5 3 W 1026,0 0,5 0 0,0
20.11.2017 00:00:00 -3,1 -3,8 -6,2 7,7 11,6 1 0 4 2 ZW 1026,2 1,6 0 0,0
19.11.2017 23:00:00 -2,4 -3,0 -5,8 7,8 11,6 2 1 6 3 OZO 1026,1 0,4 0 0,0
19.11.2017 22:00:00 -2,0 -2,6 -5,3 7,8 11,6 1 1 4 2 NW 1026,0 0,5 0 0,0
19.11.2017 21:00:00 -1,0 -1,8 -4,6 7,9 11,6 1 1 5 3 NW 1025,5 10 0 0,0
19.11.2017 20:00:00 0,1 -0,8 -3,7 7,9 11,6 4 2 10 5 NNW 1025,1 13 0 0,0
19.11.2017 19:00:00 0,3 -1,1 -2,6 7,9 11,6 6 3 9 5 NNW 1024,5 15 0 0,0
19.11.2017 18:00:00 2,0 0,2 -1,6 7,9 11,6 4 2 14 8 NW 1023,9 20 0 0,0
19.11.2017 17:00:00 5,1 1,0 3,1 7,8 11,6 11 6 19 11 W 1023,3 20 18 0,0
19.11.2017 16:00:00 7,9 1,5 9,3 7,8 11,6 10 6 23 13 W 1022,7 20 60 0,0
19.11.2017 15:00:00 8,2 1,6 10,8 7,7 11,6 14 8 25 14 W 1022,5 20 60 0,0
19.11.2017 14:00:00 8,0 1,4 12,9 7,7 11,6 15 8 25 14 W 1022,5 20 60 0,0
19.11.2017 13:00:00 7,8 2,3 9,4 7,7 11,6 16 8 26 14 WNW 1022,3 20 58 0,0
19.11.2017 12:00:00 7,0 2,1 10,0 7,7 11,6 17 9 27 15 WNW 1022,4 20 56 0,0
19.11.2017 11:00:00 5,9 3,1 8,6 7,7 11,6 12 6 20 11 WNW 1022,3 19 60 0,0
19.11.2017 10:00:00 4,4 3,5 2,0 7,8 11,6 10 6 17 9 WNW 1022,0 10 60 0,0
19.11.2017 09:00:00 1,1 0,7 -2,4 7,8 11,6 4 2 8 4 NNW 1021,7 0,9 32 0,0
19.11.2017 08:00:00 1,2 0,6 -2,1 7,8 11,6 3 1 10 5 NW 1020,6 1,3 0 0,0
19.11.2017 07:00:00 2,8 2,1 0,8 7,8 11,6 6 4 12 7 WNW 1020,0 4,0 0 0,0
19.11.2017 06:00:00 4,5 3,9 1,9 7,8 11,7 9 5 13 7 WNW 1019,5 7 0 0,0
19.11.2017 05:00:00 4,8 4,1 3,5 7,8 11,6 9 5 13 7 WNW 1019,1 10 0 0,0
19.11.2017 04:00:00 5,0 4,0 3,9 7,8 11,6 8 5 16 8 WNW 1018,8 12 0 0,0
19.11.2017 03:00:00 5,9 5,2 4,9 7,8 11,6 10 5 13 7 WNW 1018,6 10 0 0,0
19.11.2017 02:00:00 6,7 6,0 6,0 7,8 11,7 8 4 17 9 W 1018,3 11 0 0,2
19.11.2017 01:00:00 6,8 6,2 6,3 7,8 11,7 11 6 17 9 WNW 1018,5 6 0 0,4
19.11.2017 00:00:00 6,6 5,7 5,9 7,8 11,7 7 4 17 9 WZW 1018,5 9 0 1,0
18.11.2017 23:00:00 6,2 5,3 5,8 7,8 11,7 7 4 15 8 ZW 1019,5 4,4 0 0,8
18.11.2017 22:00:00 6,1 5,2 5,7 7,8 11,7 6 3 26 14 WZW 1020,0 4,6 0 1,6
18.11.2017 21:00:00 5,9 5,2 4,9 7,8 11,7 9 5 18 10 WZW 1020,3 4,2 0 0,2
18.11.2017 20:00:00 4,9 4,5 3,8 7,8 11,7 4 2 9 5 NNO 1020,9 1,7 0 0,6
18.11.2017 19:00:00 3,7 3,3 1,7 7,8 11,7 4 2 8 4 O 1021,8 2,1 0 0,0
18.11.2017 18:00:00 1,9 1,0 0,0 7,8 11,7 4 2 10 5 O 1022,4 5 0 0,0
18.11.2017 17:00:00 2,4 0,8 0,8 7,7 11,7 6 3 10 5 ZO 1022,6 10 11 0,0

tt = temperatuur
td = dauwpunt
tt 5cm = temperatuur 5cm
tt -20cm = temperatuur -20cm
tt -100cm = temperatuur -100cm
ff = windsnelheid
fx = windstoten
dd = windrichting
ppp = luchtdruk
vv = zicht
sd = Zonneschijnduur
rr = neerslag

Weerstations in de omgeving